Weather History for KMIA - February, 2014

Change the Weather History Date:

Wednesday, February 12, 2014

  Actual Average Record
Temperature  
Mean Temperature 74 °F 70 °F  
Max Temperature 82 °F 78 °F 86 °F (1995)
Min Temperature 66 °F 62 °F 37 °F (1902)
Degree Days  
Heating Degree Days 0 1  
Month to date heating degree days 0 12  
Since 1 July heating degree days 57 102  
Cooling Degree Days 9 6  
Month to date cooling degree days 140 66  
Year to date cooling degree days 292 217  
Growing Degree Days 24 (Base 50)    
Moisture  
Dew Point 67 °F    
Average Humidity 78    
Maximum Humidity 93    
Minimum Humidity 62    
Precipitation  
Precipitation 0.75 in 0.09 in 2.08 in (1983)
Month to date precipitation 0.76 0.95  
Year to date precipitation 2.67 2.57  
Snow  
Snow 0.00 in - - ()
Month to date snowfall 0.0  
Since 1 July snowfall 0.0  
Snow Depth 0.00 in    
Sea Level Pressure  
Sea Level Pressure 29.93 in    
Wind  
Wind Speed 7 mph (SSE)    
Max Wind Speed 36 mph    
Max Gust Speed 44 mph    
Visibility 9 miles    
Events Rain , Thunderstorm    
T = Trace of Precipitation, MM = Missing Value Source: NWS Daily Summary

Daily Weather History Graph

Daily Weather History Graph

Search for Another Location

Airport or City:

Trip Planner

Search our weather history database for the weather conditions in past years. The results will help you decide how hot, cold, wet, or windy it might be!

Date:

Astronomy

Feb. 12, 2014 Rise Set
Actual Time 6:58 AM EST 6:12 PM EST
Civil Twilight 6:34 AM EST 6:36 PM EST
Nautical Twilight 6:07 AM EST 7:03 PM EST
Astronomical Twilight 5:40 AM EST 7:30 PM EST
Moon 4:29 PM EST (2/12) 5:09 AM EST (2/12)
Length of Visible Light 12h 01m
Length of Day
11h 14m
Waxing Gibbous, 95% of the Moon is Illuminated
Feb 12
Waxing Gibbous
Feb 14
Full
Feb 22
Last Quarter
Mar 1
New
Mar 8
First Quarter

Hourly Weather History & Observations

Time (EST) Temp. Heat Index Dew Point Humidity Pressure Visibility Wind Dir Wind Speed Gust Speed Precip Events Conditions
1:04 AM 71.6 °F - 66.2 °F 83% 30.04 in 10.0 mi WNW 3.5 mph - N/A   Mostly Cloudy
1:53 AM 70.0 °F - 66.0 °F 87% 30.02 in 10.0 mi Calm Calm - N/A   Scattered Clouds
2:53 AM 70.0 °F - 66.9 °F 90% 30.01 in 10.0 mi Calm Calm - N/A   Scattered Clouds
3:53 AM 69.1 °F - 64.0 °F 84% 30.00 in 10.0 mi Calm Calm - N/A   Partly Cloudy
4:53 AM 66.9 °F - 64.0 °F 90% 29.99 in 10.0 mi Calm Calm - N/A   Partly Cloudy
5:53 AM 68.0 °F - 64.0 °F 87% 29.99 in 10.0 mi North 3.5 mph - N/A   Partly Cloudy
6:53 AM 68.0 °F - 62.1 °F 81% 30.01 in 10.0 mi North 3.5 mph - N/A   Scattered Clouds
7:53 AM 69.1 °F - 63.0 °F 81% 30.02 in 10.0 mi Calm Calm - N/A   Scattered Clouds
8:53 AM 75.0 °F - 66.0 °F 73% 30.03 in 10.0 mi Variable 3.5 mph - N/A   Scattered Clouds
9:53 AM 80.1 °F 82.7 °F 68.0 °F 67% 30.03 in 10.0 mi SSE 11.5 mph - N/A   Mostly Cloudy
10:40 AM 80.6 °F 83.2 °F 68.0 °F 65% 30.01 in 10.0 mi ESE 16.1 mph - N/A   Mostly Cloudy
10:53 AM 80.1 °F 82.7 °F 68.0 °F 67% 30.01 in 10.0 mi SE 15.0 mph 24.2 mph N/A   Mostly Cloudy
11:53 AM 81.0 °F 83.8 °F 68.0 °F 65% 29.98 in 10.0 mi SSE 17.3 mph 24.2 mph N/A   Mostly Cloudy
12:53 PM 80.1 °F 82.7 °F 68.0 °F 67% 29.94 in 10.0 mi SSE 15.0 mph 23.0 mph N/A   Mostly Cloudy
1:53 PM 80.1 °F 82.1 °F 66.0 °F 62% 29.91 in 10.0 mi SSE 13.8 mph 21.9 mph N/A   Mostly Cloudy
1:58 PM 80.6 °F 82.7 °F 66.2 °F 61% 29.91 in 10.0 mi SE 17.3 mph 21.9 mph N/A   Mostly Cloudy
2:53 PM 78.1 °F - 68.0 °F 71% 29.89 in 10.0 mi SE 11.5 mph 23.0 mph N/A   Mostly Cloudy
3:53 PM 78.1 °F - 69.1 °F 74% 29.86 in 10.0 mi SE 12.7 mph 21.9 mph 0.00 in   Mostly Cloudy
4:14 PM 78.8 °F - 69.8 °F 74% 29.86 in 10.0 mi SSE 11.5 mph - N/A Thunderstorm Thunderstorm
4:22 PM 75.2 °F - 68.0 °F 78% 29.87 in 1.0 mi SE 29.9 mph 43.7 mph 0.00 in Rain , Thunderstorm Light Thunderstorms and Rain
4:24 PM 71.6 °F - 64.4 °F 78% 29.88 in 0.0 mi ESE 34.5 mph 43.7 mph 0.07 in Rain , Thunderstorm Heavy Thunderstorms and Rain
4:36 PM 71.6 °F - 66.2 °F 83% 29.87 in 7.0 mi SE 9.2 mph - 0.20 in Rain , Thunderstorm Light Thunderstorms and Rain
4:51 PM 73.4 °F - 69.8 °F 88% 29.87 in 10.0 mi SSE 11.5 mph - 0.20 in Rain Light Rain
4:53 PM 73.9 °F - 70.0 °F 87% 29.87 in 10.0 mi SSE 12.7 mph - 0.20 in Rain Light Rain
5:53 PM 73.9 °F - 69.1 °F 85% 29.88 in 10.0 mi SE 10.4 mph - 0.00 in   Overcast
6:53 PM 73.9 °F - 69.1 °F 85% 29.86 in 10.0 mi South 5.8 mph - N/A   Overcast
7:53 PM 73.9 °F - 68.0 °F 82% 29.86 in 10.0 mi SSE 5.8 mph - N/A   Overcast
8:53 PM 73.9 °F - 70.0 °F 87% 29.86 in 10.0 mi SSE 3.5 mph - N/A   Overcast
9:20 PM 73.4 °F - 69.8 °F 88% 29.85 in 7.0 mi SE 3.5 mph - 0.00 in Rain , Thunderstorm Light Thunderstorms and Rain
9:53 PM 72.0 °F - 68.0 °F 87% 29.89 in 7.0 mi South 10.4 mph 17.3 mph 0.12 in Rain , Thunderstorm Light Thunderstorms and Rain
10:25 PM 69.8 °F - 66.2 °F 88% 29.88 in 6.0 mi SSW 6.9 mph - 0.05 in Rain Light Rain
10:53 PM 68.0 °F - 64.9 °F 90% 29.92 in 5.0 mi WSW 6.9 mph - 0.19 in Rain Rain
11:53 PM 66.0 °F - 63.0 °F 90% 29.87 in 6.0 mi SW 3.5 mph - 0.24 in Rain Light Rain